This demonstration page uses our WeatherBlox Daily Observations layout. Learn more.

Left ArrowRight Arrow

Hourly Observations for December 20, 2021

Temp ( °F °C ) Dew Point ( °F °C ) Humidity (%) Winds ( mph kmh ) Pressure ( in mb ) Visibility ( mi km ) Precip ( " mm )
12:53 am 00:53 Clear -2 -18.9 -6 -21.1 83 83 SW 6 9 30.41 1030 10 16 0.00 0.00
1:53 am 01:53 Clear -3 -19.4 -6 -21.1 86 86 SW 6 9 30.41 1030 10 16 0.00 0.00
2:53 am 02:53 Clear -4 -20 -8 -22.2 83 83 Calm 30.41 1030 10 16 0.00 0.00
3:53 am 03:53 Clear -2 -18.9 -6 -21.1 83 83 Calm 30.39 1029 10 16 0.00 0.00
4:53 am 04:53 Clear -3 -19.4 -7 -21.7 82 82 NW 3 6 30.37 1029 10 16 0.00 0.00
5:53 am 05:53 Clear -3 -19.4 -8 -22.2 79 79 Calm 30.35 1028 10 16 0.00 0.00
6:53 am 06:53 Clear -2 -18.9 -6 -21.1 83 83 E 6 9 30.33 1027 10 16 0.00 0.00
7:53 am 07:53 Clear 2 -16.7 -2 -18.9 83 83 E 5 7 30.30 1026 10 16 0.00 0.00
8:53 am 08:53 Sunny 2 -16.7 -1 -18.3 88 88 NE 8 13 30.27 1025 10 16 0.00 0.00
9:53 am 09:53 Sunny 4 -15.6 0 -17.8 83 83 E 13 20 30.24 1024 10 16 0.00 0.00
10:53 am 10:53 Sunny 4 -15.6 0 -17.8 83 83 ENE 12 19 30.19 1022 10 16 0.00 0.00
11:53 am 11:53 Sunny 7 -13.9 2 -16.7 80 80 ENE 8 13 30.14 1021 10 16 0.00 0.00
12:53 pm 12:53 Cloudy 9 -12.8 4 -15.6 80 80 S 3 6 30.11 1020 10 16 0.00 0.00
1:53 pm 13:53 Cloudy 9 -12.8 4 -15.6 80 80 SSW 5 7 30.06 1018 10 16 0.00 0.00
2:24 pm 14:24 Cloudy with Light Snow 10 -12.2 5 -15 80 80 SSW 5 7 30.11 1019 4 6 0.00 0.00
2:48 pm 14:48 Cloudy 10 -12 5 -15 79 79 Calm 30.09 1019 9 14 0.00 0.00
2:53 pm 14:53 Cloudy 10 -12.2 5 -15 80 80 Calm 30.03 1017 10 16 0.00 0.00
3:53 pm 15:53 Cloudy 11 -11.7 6 -14.4 81 81 Calm 29.99 1016 10 16 0.00 0.00
4:53 pm 16:53 Cloudy 11 -11.7 7 -13.9 84 84 SW 6 9 29.98 1015 10 16 0.00 0.00
5:53 pm 17:53 Clear 10 -12.2 7 -13.9 87 87 W 5 7 29.98 1015 10 16 0.00 0.00
6:53 pm 18:53 Clear 9 -12.8 6 -14.4 88 88 SW 6 9 29.98 1015 10 16 0.00 0.00
7:53 pm 19:53 Clear 7 -13.9 4 -15.6 87 87 SW 10 17 29.98 1015 10 16 0.00 0.00
8:53 pm 20:53 Clear 3 -16.1 0 -17.8 87 87 W 8 13 30.02 1017 10 16 0.00 0.00
9:53 pm 21:53 Clear 2 -16.7 -1 -18.3 88 88 WSW 9 15 30.06 1018 10 16 0.00 0.00
10:53 pm 22:53 Clear 4 -15.6 0 -17.8 83 83 WSW 8 13 30.08 1019 10 16 0.00 0.00
11:53 pm 23:53 Clear 3 -16.1 -2 -18.9 79 79 SW 8 13 30.09 1019 10 16 0.00 0.00

Powered by AerisWeather